Date,TemperatureHighF,TemperatureAvgF,TemperatureLowF,DewpointHighF,DewpointAvgF,DewpointLowF,HumidityHigh,HumidityAvg,HumidityLow,PressureMaxIn,PressureMinIn,WindSpeedMaxMPH,WindSpeedAvgMPH,GustSpeedMaxMPH,PrecipitationSumIn
2013-2-1,45.1,38.3,28.8,15.0,10.7,6.1,41,32,28,24.13,23.98,20,4,23,0.00
2013-2-2,52.3,39.6,25.5,12.0,8.9,4.0,47,29,18,24.19,24.13,16,4,17,0.00
2013-2-3,54.1,29.6,22.8,13.3,5.2,1.0,44,37,18,24.07,23.89,13,2,14,0.00
2013-2-4,50.2,40.3,28.0,9.4,4.6,-2.3,32,22,19,23.95,23.83,17,3,22,0.00
2013-2-5,58.5,44.5,35.8,19.8,11.6,5.2,36,26,20,24.01,23.86,23,3,23,0.00
2013-2-6,52.9,38.9,29.5,26.6,17.0,10.9,82,44,23,24.04,23.80,14,2,15,0.00
2013-2-7,46.2,29.8,19.9,24.5,13.4,2.4,83,55,27,24.10,23.98,14,1,14,0.00
2013-2-8,48.4,29.8,18.5,11.0,3.2,-1.1,43,33,19,23.98,23.71,8,1,9,0.00
2013-2-9,35.4,28.4,21.7,22.3,13.3,2.8,87,56,33,23.71,23.56,15,2,15,0.00
2013-2-10,32.5,24.3,19.2,23.2,11.7,2.2,86,61,33,23.98,23.59,11,2,12,0.00
2013-2-11,23.4,17.4,9.7,16.6,10.1,1.7,78,72,65,23.98,23.89,10,2,11,0.00
2013-2-12,39.2,24.9,9.3,5.9,0.7,-3.7,70,38,21,23.98,23.95,10,2,11,0.00
2013-2-13,41.9,34.9,29.5,11.2,6.3,1.9,31,29,26,23.98,23.89,20,5,22,0.00
2013-2-14,37.8,25.5,14.4,20.3,12.0,2.2,85,61,29,24.16,23.95,18,3,18,0.00
2013-2-15,36.3,23.2,8.1,32.1,11.8,2.6,87,65,33,24.19,24.13,14,2,14,0.00
2013-2-16,50.2,40.4,32.5,15.6,10.2,6.3,36,29,22,24.13,23.95,26,5,30,0.00
2013-2-17,58.3,39.4,27.7,13.5,7.1,1.5,40,27,17,23.95,23.59,18,3,30,0.00
2013-2-18,37.2,29.3,17.6,8.1,1.7,-5.8,45,30,24,24.01,23.74,17,3,19,0.00
2013-2-19,36.7,25.3,14.7,8.0,2.5,-5.8,45,37,30,24.01,23.77,11,2,12,0.00
2013-2-20,34.2,24.4,17.6,21.9,10.2,3.7,87,57,34,23.77,23.62,12,3,12,0.00
2013-2-21,24.1,19.0,12.0,18.4,13.8,6.8,84,80,76,23.83,23.65,9,3,10,0.00
2013-2-22,31.5,21.1,8.6,25.5,13.7,3.2,86,74,39,23.86,23.77,14,2,17,0.00
2013-2-23,50.9,32.9,25.3,19.2,9.4,0.2,69,38,24,23.80,23.59,14,4,19,0.04
2013-2-24,27.9,24.8,20.7,23.9,21.0,16.5,90,85,69,24.04,23.71,13,3,16,0.04
2013-2-25,33.6,18.9,4.1,27.7,13.6,-0.4,88,80,58,24.04,23.80,12,2,12,0.12
2013-2-26,30.2,23.2,11.8,27.4,19.3,6.3,90,85,78,24.07,23.77,9,1,10,0.16
2013-2-27,37.4,21.1,6.1,25.5,8.6,-0.1,83,61,30,24.13,24.07,13,2,13,0.16
2013-2-28,41.0,28.2,13.5,11.8,5.0,0.1,56,38,23,24.16,24.07,15,3,17,0.16